Regional Weather Roundup
Issued by NWS

Home | Current Version | Previous Version | Text Only | Print | Product List | Glossary Off
Versions: 1 2 3 4 5 6 7 8 9 10 11 12 13 14 15 16 17 18 19 20 21 22 23 24 25 26 27 28 29 30 31 32 33 34 35 36 37 38 39 40 41 42 43 44 45 46 47 48 49 50

390
ASUS45 KTFX 120810
RWRMT
MONTANA REGIONAL WEATHER ROUNDUP
NATIONAL WEATHER SERVICE GREAT FALLS MT
100 AM MST TUE DEC 12 2017

NOTE: "FAIR" INDICATES FEW OR NO CLOUDS BELOW 12000 FEET WITH NO
SIGNIFICANT WEATHER AND/OR OBSTRUCTIONS TO VISIBILITY.

MTZ001>007-043-120900-
WEST OF THE DIVIDE

CITY           SKY/WX    TMP DP  RH WIND       PRES   REMARKS
KALISPELL      CLOUDY    23  21  92 S3        30.57F
MISSOULA       FOG       18  15  88 CALM      30.59S VSB 1/4
BUTTE          FAIR       9   4  80 SE3       30.48F
MULLAN PASS    FAIR      39  -2  17 SW7       30.44S
ANACONDA         N/A     19   9  63 SW6       30.46F WCI  11
DEER LODGE       N/A     12  10  92 W3        30.50S
EUREKA           N/A     21  18  86 MISG      30.59F
HAMILTON         N/A     10   7  85 W3        30.56R
LIBBY            N/A     25  19  80 CALM      30.58S
PLAINS           N/A     27  18  69 CALM      30.55F
RONAN            N/A     25  22  88 CALM      30.53F
$$

MTZ008-052>055-120900-
SOUTHWEST MONTANA

CITY           SKY/WX    TMP DP  RH WIND       PRES   REMARKS
BOZEMAN        FAIR      16  11  80 SW3       30.46F
DILLON         FAIR      26  11  52 S12       30.47F WCI  16
W YELLOWSTONE  FAIR       1  -2  85 CALM      30.58S
ENNIS          CLOUDY    25  12  58 CALM      30.51F
THREE FORKS      N/A      8   4  84 CALM      30.40F
TWIN BRIDGES     N/A     23  10  57 CALM      30.41S
$$

MTZ009-010-012-014-046-048-049-054-120900-
EAST SLOPES AND CENTRAL MONTANA

CITY           SKY/WX    TMP DP  RH WIND       PRES   REMARKS
CUT BANK       FAIR      48  -3  12 W25       30.20F
GREAT FALLS    FAIR      43  10  26 SW17      30.27F
MALMSTROM AFB  FAIR      38  15  39 SW15      30.27F WCI  30
HELENA         FAIR      18  14  84 SW3       30.46F
BOWMANS CRNR   FAIR      34  10  37 S21       30.28  WCI  22
CHOTEAU          N/A     46  -4  12 SW8       30.25F
FAIRFIELD      FAIR      38  10  31 S6        30.25F
POWER          FAIR      38  12  34 SW15      30.24F WCI  29
RAYNESFORD     FAIR      42  20  40 CALM      30.27F
ULM            FAIR      36  15  42 CALM      30.29
$$

MTZ011-013-016-021-045-047-050-051-120900-
NORTH CENTRAL MONTANA

CITY           SKY/WX    TMP DP  RH WIND       PRES   REMARKS
HAVRE          FAIR      27  19  72 W8        30.22F WCI  19
LEWISTOWN      FAIR      30  22  72 SE5       30.28F
N BAR RANCH    FAIR      46  19  34 W5        30.29F
CHINOOK          N/A     23  18  80 CALM      30.23F
DENTON         FAIR      33  21  61 S16       30.22  WCI  23
GEYSER         FAIR      44  20  38 W15       30.25F
GRASS RANGE    FAIR      43  22  44 W12       30.22F
STANFORD       FAIR      40  15  37 CALM      30.27
WINIFRED       FAIR      44  20  39 SW13      30.24F
$$

MTZ017>020-022>027-061-062-120900-
NORTHEAST MONTANA

CITY           SKY/WX    TMP DP  RH WIND       PRES   REMARKS
GLASGOW        FAIR      29  22  75 SW3       30.23F
GLENDIVE       FAIR      22  19  89 S7        30.26F WCI  13
JORDAN           N/A     17  13  84 W3        30.24F
SIDNEY         FAIR      24  21  88 S6        30.25F WCI  17
WOLF POINT     FAIR      19  16  88 NW5       30.23F
MALTA          MOCLDY    19  16  86 W6        30.23F WCI  11
PLENTYWOOD       N/A     27  23  86 CALM      30.19F
POPLAR           N/A     23  21  93 CALM      30.23F
SCOBEY           N/A     27  16  63 CALM      30.16F
$$

MTZ028>42-056>058-120900-
SOUTHCENTRAL AND SOUTHEAST MONTANA

CITY           SKY/WX    TMP DP  RH WIND       PRES   REMARKS
BAKER          FAIR      25  22  88 W8        30.28F WCI  16
BILLINGS       FAIR      40  18  41 SW22      30.32S
LIVINGSTON     FAIR      45  19  35 W23G32    30.37F
MILES CITY     FAIR      23  20  88 SE8       30.28F WCI  14
BIG TIMBER     CLEAR     43  16  33 W31G39    30.34F
EKALAKA          N/A     31  18  58 SW7       30.22F WCI  24
FORSYTH          N/A     25  19  80 CALM      30.28F
LAUREL           N/A     37  19  48 W10       30.34S WCI  30
$$

REGIONAL REPORTS...DAKOTAS

CITY           SKY/WX    TMP DP  RH WIND       PRES   REMARKS
WILLISTON        N/A    N/A N/A N/A MISG      30.24F
MINOT          FAIR      29  25  85 SW10      30.18F WCI  20
DICKINSON      FAIR      24  22  91 W8        30.23F WCI  15
BEACH          FAIR      27  25  93 SW9       30.28F WCI  17
CROSBY         FAIR      28  25  86 SW15      30.18F WCI  17
TIOGA          FAIR      27  27 100 W8        30.20F WCI  18
WATFORD CITY   FAIR      25  25 100 SW8       30.23F WCI  16
BISMARCK       CLOUDY    26  24  92 W3        30.26F
GRAND FORKS    CLOUDY    13   9  84 S8        30.25F WCI   2
FARGO          MOCLDY     6   3  87 S5        30.30F
BUFFALO SD       N/A     25  21  85 W8        30.22F WCI  16
RAPID CITY     FAIR      26  18  71 SW3       30.32F
$$

REGIONAL REPORTS...WYOMING/IDAHO/WASHINGTON

CITY           SKY/WX    TMP DP  RH WIND       PRES   REMARKS
GILLETTE       FAIR      35  17  47 SW13      30.32F WCI  26
SHERIDAN       FAIR      24  16  71 CALM      30.32F
BUFFALO WY     FAIR      38   4  24 SW7       30.34F
CODY           FAIR      23  17  78 CALM      30.38F
YELLOWSTONE LA   N/A      9   7  92 CALM      30.59S
IDAHO FALLS    FAIR      13  10  88 CALM      30.58F
SALMON         CLOUDY    15  12  88 CALM      30.71S FOG
BOISE          CLOUDY    25  21  85 NE3       30.67S
SPOKANE        LGT SNOW  24  24 100 CALM      30.58S FOG
$$

REGIONAL REPORTS...ALBERTA

CITY           SKY/WX    TMP DP  RH WIND       PRES   REMARKS
EDMONTON       CLEAR     34  23  64 SW9       29.98F WCI  26
CALGARY        PTCLDY    43  23  45 SW9       30.08F
LETHBRIDGE     CLEAR     52   3  14 W22G29    30.14F
MEDICINE HAT   CLEAR     36  21  55 SW13      30.13F WCI  27
$$

REGIONAL REPORTS...SASKATCHEWAN

CITY           SKY/WX    TMP DP  RH WIND       PRES   REMARKS
SWIFT CURRENT  CLEAR     30  19  64 SW15      30.10F WCI  19
REGINA         MOCLDY    30  25  80 SW12      30.10F WCI  21
SASKATOON      CLEAR     28  23  80 SW10      30.03F WCI  19
$$




USA.gov is the U.S. government's official web portal to all federal, state and local government web resources and services.